Simultaneous Nadir Overpasses (SNOs) Predictions

Prediction of SNOs between METOP-A and TERRA Satellite Orbit:

Table of predicted SNOs for the next 14.0 days since TLE Epoch: 10/16/2021
Index Date (METOP-A) Time (METOP-A) Lat,Lon (METOP-A) SZA (METOP-A ) Date (TERRA) Time (TERRA) Lat,Lon (TERRA) SZA (TERRA ) Distance(km) Time Diff (sec)
1 10/17/2021 16:53:29 -81.27, 150.82 86.43 10/17/2021 16:54:08 -81.25, 150.91 86.42 2.33 39
2 10/17/2021 17:44:09 81.25, -41.53 93.61 10/17/2021 17:43:34 81.26, -41.38 93.61 2.61 35
3 10/20/2021 12:27:48 -81.26,-142.58 85.40 10/20/2021 12:28:19 -81.25,-142.62 85.39 0.79 31
4 10/20/2021 13:18:28 81.24, 25.06 94.65 10/20/2021 13:17:45 81.26, 25.07 94.64 1.41 43
5 10/23/2021 08:02:08 -81.26, -76.38 84.42 10/23/2021 08:02:30 -81.25, -76.19 84.39 3.29 22
6 10/23/2021 08:52:48 81.25, 91.25 95.63 10/23/2021 08:51:57 81.23, 91.10 95.57 3.31 51
7 10/26/2021 03:36:26 -81.25, -9.82 83.43 10/26/2021 03:36:40 -81.25, -9.82 83.43 0.61 14
8 10/26/2021 04:27:06 81.24, 157.79 96.61 10/26/2021 04:26:06 81.25, 157.82 96.59 0.86 60
9 10/28/2021 23:10:45 -81.25, 56.71 82.48 10/28/2021 23:10:50 -81.26, 56.88 82.45 3.41 5



Historial Predications of SNOs between METOP-A and TERRA
